Pepinster, Belgium
Current Conditions -  °F | °C
As of 8:50 PM on Sunday 23 Nov 2014 (Local Time) from EBLG Reporting Station
Clear Clear  
Wind Chill: 55°   Ceiling: Unl
Heat Index: 55°   Visibility: 6mi
Dew Point: 48°   Wind: 14mph
Humidity: 77%   Direction: 190°S
Pressure: 29.97"   Gusts: NA
Location:  50.57°N, 5.8°E
Report Text: EBLG 231950Z 19012KT CAVOK 13/09 Q1015 NOSIG
Loading
Personal Weather Stations






























Interactive Weather Map New forecast layout! Learn more

10-Day Weather Forecast

Advertisements
Track Severe Weather on mobile